EHI
0 0 0 1 0 0 0 0 0 0 0 1 2 3 2 1 0 0 0 0 0 0 0 0 0 0 0 0 0 0 0 0 0 0 0 0 0 0 0 0 0 0 0
0 0 0 1 0 0 0 1 1 1 0 1 3 3 2 1 0 0 0 0 0 0 0 0 0 0 0 0 0 0 0 0 0 0 0 0 0 0 0 0 0 0 0
0 0 1 1 1 1 1 2 2 2 1 1 4 5 3 1 0 0 0 0 0 0 0 0 0 0 0 0 0 0 0 0 0 0 0 0 0 0 0 0 0 0 0
2 2 2 2 2 2 2 3 4 3 2 2 5 7 6 3 1 0 0 0 0 0 0 0 0 0 0 0 0 0 0 0 0 0 0 0 0 0 0 0 0 0 0
5 4 4 3 3 2 2 4 5 5 4 3 5 7 7 3 1 0 0 0 0 0 0 0 0 0 0 0 0 0 0 0 0 0 0 1 1 1 2 1 1 0 1
6 5 4 3 1 1 3 5 6 6 5 4 4 5 4 2 0 0 0 0 0 0 0 0 0 0 0 0 0 0 0 0 1 1 1 2 2 3 3 3 2 2 2
5 5 4 3 1 2 5 6 6 6 6 6 5 3 2 1 0 0 0 0 0 0 0 0 0 0 0 0 0 0 0 0 1 2 3 3 3 3 3 3 3 3 3
3 3 3 3 3 4 6 7 7 7 8 9 8 5 2 1 1 0 0 0 0 0 0 0 0 0 0 0 0 0 0 0 1 2 2 3 3 3 3 3 3 3 3
1 1 3 3 4 6 8 9 9 9 10 12 11 7 4 3 2 1 0 0 0 0 0 0 0 0 0 0 0 0 0 0 0 1 1 1 2 3 3 3 4 3 3
1 1 3 4 6 7 9 10 10 10 11 12 11 8 6 4 2 1 1 0 0 0 0 0 0 0 0 0 0 0 0 0 0 0 0 1 2 3 3 4 4 4 3
3 3 5 7 8 10 11 11 10 10 11 10 10 10 8 5 2 1 0 0 0 0 0 0 0 0 0 0 0 0 0 0 0 1 1 1 2 3 4 4 4 4 4
5 5 8 11 13 13 13 11 10 10 10 10 11 11 9 6 3 2 1 1 1 1 0 1 1 1 1 1 1 0 0 0 0 0 0 1 1 2 3 5 5 4 4
8 7 10 14 15 15 15 13 13 13 12 12 13 13 11 7 5 4 3 3 3 2 1 1 2 2 2 2 2 1 0 0 0 0 1 1 2 2 3 4 4 4 4
9 10 12 15 17 16 17 17 17 15 15 15 15 15 13 11 8 5 4 4 4 3 2 2 2 3 3 3 4 3 2 2 2 2 3 4 4 5 4 4 4 3 3
10 12 14 16 18 19 19 20 20 19 19 19 18 17 17 17 13 7 5 4 4 4 3 2 2 1 2 3 5 6 7 6 5 5 6 7 7 6 5 5 4 4 3
11 12 14 16 19 22 24 24 24 24 24 23 21 20 21 22 17 11 7 5 4 5 5 5 4 3 3 4 5 7 10 10 9 8 8 9 8 7 6 4 3 3 3
12 12 13 15 19 24 27 28 29 28 27 25 23 22 24 24 19 13 9 6 6 6 7 8 8 7 7 5 3 4 9 12 11 10 10 11 10 9 7 5 3 3 4
13 12 13 15 19 23 28 30 30 30 29 25 24 24 25 23 19 14 11 8 7 6 7 8 9 9 8 6 3 3 6 10 10 10 11 11 10 9 8 6 5 5 5
13 14 14 15 17 20 26 31 30 30 30 28 26 27 27 24 20 17 13 10 7 7 7 7 8 8 8 6 3 2 5 7 8 9 9 9 8 6 6 6 6 6 6
13 14 15 14 13 17 26 31 30 28 28 28 28 29 28 24 21 19 16 12 9 7 7 7 7 6 6 5 2 2 5 7 7 7 8 6 4 3 4 5 6 5 5
12 12 13 12 11 16 24 27 25 22 24 26 27 26 25 22 21 20 17 13 10 9 8 7 6 5 5 4 2 1 4 7 7 7 7 4 1 1 1 3 3 3 3
8 10 11 10 11 15 20 20 17 18 21 24 24 23 21 20 18 18 16 13 12 11 9 7 6 5 5 4 2 1 2 4 6 6 5 3 1 0 0 1 1 1 1
6 8 8 8 10 12 14 14 14 17 21 22 21 20 19 18 16 14 13 11 11 11 9 8 7 6 6 5 3 1 1 2 3 3 2 1 0 0 0 0 0 0 1
6 7 7 8 9 10 10 11 13 18 21 22 21 19 19 18 15 12 10 8 8 8 8 8 8 7 6 5 4 3 2 1 1 1 0 0 0 0 0 1 1 1 2
8 7 7 8 8 8 7 8 11 16 21 22 21 20 19 19 17 13 9 6 4 4 5 5 6 5 4 4 3 3 3 2 1 0 0 0 0 1 2 3 3 3 4
9 9 8 8 7 7 6 7 10 16 21 21 20 20 19 19 18 15 9 4 2 2 2 3 4 4 4 3 3 3 3 2 1 0 0 0 1 3 4 5 5 5 5
Wind_Speed
6 5 5 5 5 4 4 4 3 2 3 2 2 1 1 1 1 1 1 2 2 2 2 2 2 2 2 2 3 3 3 2 2 2 2 3 3 2 2 1 2 2 1
5 6 5 5 5 5 5 4 4 3 3 2 2 2 1 1 1 1 2 2 2 2 2 3 2 2 2 2 2 2 2 1 1 2 2 1 2 2 1 1 1 1 2
9 8 7 6 6 6 6 5 4 4 3 3 3 2 2 2 2 2 1 1 2 2 2 3 2 2 2 2 1 2 3 2 1 1 2 2 1 0 1 1 1 1 1
8 8 8 8 7 7 6 5 4 4 3 4 4 4 3 2 1 0 0 1 2 2 2 2 2 2 2 2 1 2 1 2 1 0 0 1 2 2 0 1 1 1 1
10 10 10 9 8 7 6 5 4 4 4 4 4 4 3 2 1 1 1 1 1 1 2 2 2 2 1 2 1 1 1 1 2 1 1 1 1 1 2 0 1 1 1
10 9 8 7 6 5 5 5 5 4 4 5 4 4 4 3 3 1 1 0 1 1 1 1 1 1 1 1 1 1 1 1 1 1 1 2 2 2 2 2 1 0 1
10 9 9 8 8 7 7 6 6 5 5 5 5 4 4 5 4 3 2 1 1 0 0 1 1 1 1 1 1 1 1 1 1 1 1 1 1 2 2 2 1 0 1
10 11 11 10 9 9 7 7 7 6 5 6 5 4 4 3 3 3 2 2 1 1 1 1 1 1 1 1 1 1 1 1 1 1 1 1 1 2 2 3 3 1 0
11 11 10 10 9 9 9 9 8 6 6 6 5 4 4 4 3 3 3 2 1 1 1 1 1 1 1 1 2 1 0 0 0 1 1 1 1 1 1 2 3 3 2
9 9 9 9 8 8 7 7 7 7 6 6 5 5 4 4 4 3 3 2 2 1 2 1 1 1 1 1 1 1 0 1 0 0 0 0 0 1 1 2 2 2 2
9 9 9 8 7 7 7 7 7 6 6 6 6 5 4 4 4 3 3 3 2 2 2 2 2 2 1 1 1 1 1 1 0 0 0 1 1 1 1 1 1 1 2
7 7 8 8 7 8 7 7 7 7 7 6 5 5 4 4 4 3 3 3 3 2 2 2 2 1 1 1 1 1 0 0 0 1 0 1 1 1 1 1 2 2 2
5 6 7 8 8 8 7 7 7 7 6 6 6 5 5 5 4 4 3 3 3 2 2 2 2 1 1 1 1 1 0 0 1 1 1 1 1 1 1 1 2 2 2
5 6 7 7 7 7 7 7 6 6 6 6 6 6 6 5 5 4 3 3 3 3 2 2 2 2 1 1 1 1 1 1 1 1 1 2 2 2 2 2 2 2 2
6 6 7 7 7 6 6 6 6 6 6 6 6 6 5 5 4 4 4 3 3 3 2 2 1 1 1 1 2 2 2 1 1 2 2 2 3 3 2 2 3 3 2
7 6 7 7 7 7 7 6 6 6 6 6 6 5 5 5 4 4 4 3 3 2 2 2 2 2 1 1 2 2 2 1 1 2 2 2 2 2 2 3 4 4 4
7 7 7 7 7 7 7 7 6 6 6 6 5 5 5 5 5 4 4 4 3 3 3 2 2 2 2 1 2 2 2 2 2 2 1 2 2 1 0 1 2 2 3
7 7 7 7 6 5 5 6 7 7 7 6 5 5 5 5 5 4 4 4 3 3 3 3 2 2 2 2 2 2 2 1 2 2 2 2 2 1 1 2 1 0 1
6 5 5 5 5 5 6 6 6 6 6 6 6 6 6 6 5 5 4 4 3 3 2 2 2 2 2 2 2 1 1 1 2 2 2 2 2 2 2 2 2 0 1
4 4 4 4 5 5 6 7 6 6 6 6 6 6 6 6 6 5 4 3 3 3 2 2 2 3 3 3 3 2 1 1 2 2 2 2 2 2 3 3 3 2 2
5 6 6 5 5 5 7 7 6 5 5 4 4 5 5 5 5 4 3 3 3 2 2 2 2 2 3 3 3 3 2 2 2 1 2 2 3 3 3 3 3 4 3
5 6 6 5 4 6 7 6 5 4 4 4 4 4 4 4 4 4 3 3 3 3 2 2 1 2 2 2 3 4 4 3 2 2 2 2 3 3 2 2 2 3 2
5 5 6 5 4 5 7 7 5 4 5 5 4 4 4 3 3 4 3 3 3 3 2 2 2 2 1 2 3 4 4 3 2 2 2 2 1 1 1 1 2 2 2
5 5 6 6 5 4 5 5 5 5 6 5 4 4 4 3 3 2 3 3 3 3 3 3 3 2 2 2 1 2 2 2 1 1 0 0 1 0 1 1 1 1 2
4 5 5 6 5 5 4 4 5 6 6 5 4 4 3 4 3 2 2 3 3 4 4 4 3 3 3 3 3 2 2 2 1 1 1 0 0 0 1 1 1 0 1
4 4 4 4 4 5 4 4 5 7 7 5 4 3 3 3 3 3 1 1 2 2 3 3 3 3 3 4 4 3 3 2 3 2 1 1 1 2 1 1 1 1 1
Wind_Direction
200 183 182 177 168 166 162 165 163 151 130 111 112 104 88 57 50 52 70 87 95 102 105 108 97 98 104 111 112 111 99 88 96 89 58 38 41 49 45 52 57 54 52
187 184 181 176 181 180 180 176 178 169 160 143 131 130 125 117 95 53 59 80 94 106 119 110 105 103 105 95 100 111 110 96 93 113 103 37 14 24 40 57 69 55 51
194 190 186 188 188 188 188 189 183 174 168 142 110 88 69 55 47 36 35 51 93 103 107 116 113 107 114 124 118 124 133 143 110 97 133 139 190 336 15 36 54 64 69
193 188 186 188 194 196 186 180 178 176 168 149 140 137 136 138 175 160 75 37 63 91 109 113 118 117 119 128 146 128 135 140 148 132 108 139 152 151 92 17 30 43 55
191 190 192 191 193 188 179 175 170 177 167 157 154 145 139 140 113 89 74 48 44 67 100 118 123 127 132 140 127 111 123 142 154 154 160 134 103 123 151 167 4 20 5
190 190 187 178 180 175 172 169 170 182 170 162 160 159 156 147 130 128 126 73 38 40 72 123 126 136 147 156 157 150 148 168 156 160 166 162 156 168 158 172 198 316 341
184 182 178 180 180 176 177 175 174 181 175 169 171 175 169 162 167 172 172 160 140 96 274 144 145 154 174 173 153 149 169 178 174 182 189 185 180 163 154 153 171 183 313
184 184 184 185 184 182 178 174 179 184 178 177 180 175 170 170 177 177 168 175 188 204 190 158 159 162 153 150 139 144 199 174 188 200 183 176 182 171 170 166 160 162 357
187 186 182 183 183 182 183 181 182 182 181 181 174 172 175 175 176 172 168 172 183 182 154 148 142 142 136 139 137 139 197 150 195 210 186 182 214 186 181 178 174 170 186
184 181 178 181 182 180 180 177 181 185 183 177 179 180 180 179 173 160 163 166 170 159 136 132 130 128 122 130 134 137 131 101 344 304 120 181 221 174 177 181 178 177 178
184 180 177 177 174 170 172 176 181 180 180 182 180 175 172 169 162 162 167 164 153 148 140 135 128 125 118 117 125 134 123 133 347 341 189 258 232 200 176 160 159 168 170
176 173 166 161 165 172 177 179 181 184 188 183 173 172 163 156 158 164 165 152 147 144 143 133 129 136 123 116 122 130 105 158 282 301 299 288 265 220 183 174 180 181 179
158 160 161 166 172 176 179 181 181 184 181 171 168 166 164 164 169 173 168 158 154 149 142 142 153 164 160 143 148 154 155 225 266 279 271 274 243 253 213 193 193 189 173
159 163 168 172 173 175 177 178 181 175 168 167 169 172 177 177 177 172 165 164 160 155 161 171 179 184 178 169 171 163 191 243 278 275 264 255 235 235 217 203 200 179 159
164 170 172 173 171 168 169 170 171 167 167 166 173 181 176 167 164 165 167 167 169 173 171 169 180 189 185 191 179 190 205 234 279 295 277 256 251 236 219 208 195 174 164
174 172 172 170 173 176 175 168 166 166 162 168 178 173 164 165 171 174 168 166 172 171 164 177 188 197 217 214 190 181 204 221 246 278 292 281 273 258 243 211 188 173 174
178 174 177 180 182 183 176 171 166 155 159 166 169 167 169 173 181 179 167 173 181 177 180 191 193 209 225 217 209 194 192 213 236 250 277 288 298 288 231 169 169 195 195
184 180 181 184 181 173 162 156 149 153 160 163 165 174 178 181 177 171 177 182 178 183 196 200 204 212 236 219 215 207 198 224 250 248 245 252 273 270 167 150 137 169 232
180 179 178 174 161 158 154 145 149 154 160 168 174 182 179 178 177 183 188 184 177 185 197 192 195 211 244 237 223 186 197 237 271 275 269 253 252 254 167 156 169 210 305
160 155 145 133 144 157 149 144 155 158 174 183 183 176 172 175 181 185 182 177 177 189 188 196 213 218 235 235 214 183 189 234 274 294 292 270 257 229 179 175 183 208 244
147 145 141 143 157 153 145 147 155 178 187 174 164 165 169 173 173 167 160 158 167 168 183 211 238 233 237 232 214 194 191 219 240 257 279 285 259 226 206 192 200 211 207
142 145 145 146 148 146 145 151 172 185 154 147 156 164 163 166 159 154 156 157 165 170 186 205 255 264 248 233 231 218 217 215 220 240 251 256 236 224 219 205 200 187 178
157 149 147 144 148 155 154 162 178 155 139 140 150 150 142 141 146 158 167 161 168 181 200 200 226 254 256 247 238 228 229 221 214 237 239 245 231 244 256 228 192 183 182
161 153 150 154 165 170 169 172 163 148 143 148 150 147 145 143 139 148 169 177 187 195 205 211 222 231 234 245 243 226 209 202 212 248 258 136 101 41 329 344 230 216 207
160 156 163 170 176 170 171 167 156 147 147 149 155 157 154 154 155 160 181 192 203 197 198 210 211 212 227 234 212 193 200 197 193 135 71 48 75 360 312 289 258 193 200
153 152 159 166 171 165 170 173 163 156 152 154 162 167 162 161 162 163 171 206 200 196 203 204 203 225 224 208 202 203 196 175 152 133 157 218 228 219 224 237 246 222 211